This is the latest recevied weather packets stored in our database for station/object F4NFR-13. If no packets are shown the sender has not sent any weather packets the latest 1 day(s).
| Time | Temp. | Humidity | Pressure | Rain* | Wind** | Luminosity | Snow |
|---|---|---|---|---|---|---|---|
| 1777974173 | 13.89° C | 68% | 1012.7 hPa | 0 mm | 2.68 m/s, 58° | 0 W/m² | - |
| 1777973870 | 12.78° C | 69% | 1013 hPa | 0 mm | 4.92 m/s, 80° | 0 W/m² | - |
| 1777973568 | 12.78° C | 69% | 1013 hPa | 0 mm | 7.6 m/s, 99° | 0 W/m² | - |
| 1777973266 | 12.78° C | 70% | 1013 hPa | 0 mm | 6.26 m/s, 352° | 0 W/m² | - |
| 1777972964 | 12.78° C | 72% | 1013 hPa | 0 mm | 5.36 m/s, 61° | 4 W/m² | - |
| 1777972661 | 12.78° C | 72% | 1013 hPa | 0 mm | 5.36 m/s, 266° | 0 W/m² | - |
| 1777972056 | 12.22° C | 73% | 1013 hPa | 0 mm | 3.13 m/s, 60° | 0 W/m² | - |
| 1777971754 | 12.22° C | 74% | 1013 hPa | 0 mm | 5.36 m/s, 29° | 269 W/m² | - |
| 1777971451 | 12.22° C | 72% | 1013 hPa | 0 mm | 7.15 m/s, 56° | 0 W/m² | - |
| 1777971149 | 12.22° C | 74% | 1013 hPa | 0 mm | 4.92 m/s, 47° | 0 W/m² | - |
| 1777970846 | 12.22° C | 75% | 1013 hPa | 0 mm | 7.15 m/s, 32° | 0 W/m² | - |
| 1777970543 | 12.22° C | 74% | 1013 hPa | 0 mm | 7.15 m/s, 28° | 0 W/m² | - |
| 1777970241 | 12.22° C | 76% | 1013 hPa | 0 mm | 4.02 m/s, 17° | 0 W/m² | - |
| 1777969938 | 11.11° C | 76% | 1013 hPa | 0 mm | 2.68 m/s, 43° | 296 W/m² | - |
| 1777969636 | 11.11° C | 77% | 1013 hPa | 0 mm | 7.15 m/s, 20° | 267 W/m² | - |
| 1777969334 | 11.11° C | 77% | 1013 hPa | 0 mm | 4.92 m/s, 54° | 251 W/m² | - |
| 1777969032 | 11.11° C | 77% | 1013 hPa | 0 mm | 6.26 m/s, 7° | 252 W/m² | - |
| 1777968729 | 11.11° C | 77% | 1013.4 hPa | 0 mm | 5.36 m/s, 71° | 243 W/m² | - |
| 1777968427 | 11.11° C | 77% | 1013.4 hPa | 0 mm | 4.92 m/s, 17° | 243 W/m² | - |
| 1777968124 | 11.11° C | 77% | 1013.4 hPa | 0 mm | 7.15 m/s, 40° | 228 W/m² | - |
| 1777967822 | 11.11° C | 78% | 1013.4 hPa | 0 mm | 2.68 m/s, 69° | 212 W/m² | - |
| 1777967520 | 11.11° C | 78% | 1013.4 hPa | 0 mm | 5.81 m/s, 22° | 210 W/m² | - |
| 1777967217 | 11.11° C | 78% | 1013.4 hPa | 0 mm | 4.02 m/s, 63° | 217 W/m² | - |
| 1777966612 | 11.11° C | 78% | 1013.4 hPa | 0 mm | 4.02 m/s, 21° | 205 W/m² | - |
| 1777966310 | 10° C | 78% | 1013.4 hPa | 0 mm | 6.26 m/s, 42° | 226 W/m² | - |
* Rain latest hour (hover to see other rain measurements)
** Current wind speed in m/s (hover to see current wind gust speed)